Regional Weather Roundup
Issued by NWS Huntsville, AL

Home | Current Version | Previous Version | Text Only | Print | Product List | Glossary On
Versions: 1 2 3 4 5 6 7 8 9 10 11 12 13 14 15 16 17 18 19 20 21 22 23 24 25 26 27 28 29 30 31 32 33 34 35 36 37 38 39 40 41 42 43 44 45 46 47 48 49 50
000
ASUS44 KHUN 291610
RWRHUN

WEATHER ROUNDUP FOR THE TENNESSEE VALLEY
NATIONAL WEATHER SERVICE HUNTSVILLE AL
1000 AM CST THU JAN 29 2015

ALZ001>004-291700-
NORTHWEST ALABAMA

CITY           SKY/WX    TMP DP  RH WIND       PRES   REMARKS
COURTLAND HCN    N/A     50 N/A N/A SW17        N/A
RUSSELLVILLE     N/A     50 N/A N/A MISG        N/A
SHOALS AIRPORT PTSUNNY   55  34  45 SW21G26   30.14R
SHOALS TVA RES   N/A     54 N/A N/A MISG        N/A
$$

ALZ005>007-016-291700-
NORTH CENTRAL ALABAMA

CITY           SKY/WX    TMP DP  RH WIND       PRES   REMARKS
CULLMAN AG STN   N/A     48 N/A N/A SW9         N/A
DECATUR AP     CLOUDY    53  38  56 S20G26    30.17F
HUNTSVILLE AP  CLOUDY    54  37  52 S17G23    30.16F
HUN NWS/UAH      N/A     54  34  47 S9          N/A
MERIDIANVILLE  PTSUNNY   52  30  43 S14G20    30.16S
REDSTONE ARSN  CLOUDY    53  37  54 S16       30.16F
$$

ALZ008>010-291700-
NORTHEAST ALABAMA

CITY           SKY/WX    TMP DP  RH WIND       PRES   REMARKS
ALBERTVILLE    CLOUDY    48  37  66 S13       30.20S
FORT PAYNE     CLOUDY    46  28  49 S9        30.22F
SCOTTSBORO AP  PTSUNNY   48  32  53 SW7       30.21F
VALLEY HEAD      N/A     48 N/A N/A MISG        N/A
$$

TNZ076-096-097-291700-
SOUTHEASTERN MIDDLE TENNESSEE

CITY           SKY/WX    TMP DP  RH WIND       PRES   REMARKS
TULLAHOMA      PTSUNNY   50  30  46 S20       30.12R
WINCHESTER     MOSUNNY   46  34  61 S15       30.13F
$$

...SURROUNDING SITES...

CITY           SKY/WX    TMP DP  RH WIND       PRES   REMARKS
ATLANTA        PTSUNNY   46  28  49 S10       30.30R
ANNISTON       PTSUNNY   52  32  46 S12       30.27F
BIRMINGHAM     CLOUDY    55  34  45 S13       30.26S
CHATTANOOGA    CLOUDY    45  31  58 S10       30.23F
CORINTH        PTSUNNY   54  37  54 S12       30.11S
DALTON         PTSUNNY   45  32  61 S7        30.27F
GADSDEN        PTSUNNY   48  32  53 SW10G18   30.25F
GOLDEN TRNGL   MOSUNNY   54  41  62 S16       30.19S
HALEYVILLE       N/A     50  41  71 S18G24    30.19F
JACKSON TN     SUNNY     62  43  49 SW18      30.06R
LEWISBURG        N/A     54  36  50 MISG      30.09R VSB<1/4
MEMPHIS        CLOUDY    59  45  59 SW8G21    30.10R
MURFREESBORO   FAIR      54  34  46 SW23      30.07S
NASHVILLE      MOSUNNY   57  35  43 SW16G29   30.05S
OXFORD MS      FAIR      57  45  62 SW15G21   30.15R
ROME           PTSUNNY   45  33  63 VRB3      30.26F
SAVANNAH       PTSUNNY   55  37  50 S14       30.11R
TUPELO         CLOUDY    51  36  56 SW13      30.16R
TUSCALOOSA     PTSUNNY   54  40  59 S15G21    30.24F
$$

...GULF COAST WEATHER...

CITY           SKY/WX    TMP DP  RH WIND       PRES   REMARKS
GULFPORT       SUNNY     64  52  64 S9        30.27R
PASCAGOULA     SUNNY     66  52  60 S12       30.27S
MOBILE         MOSUNNY   64  51  62 S17G23    30.28S
GULF SHORES    SUNNY     64  53  66 S10       30.29R
PENSACOLA      MOSUNNY   65  53  65 S12       30.30R
DESTIN         SUNNY     61  51  70 SE15      30.31S
PANAMA CITY    SUNNY     60  47  63 SE15G22   30.33F
APPALACHICOLA  SUNNY     60  45  57 SE12      30.34F
$$



USA.gov is the U.S. government's official web portal to all federal, state and local government web resources and services.